When you browse on this site, cookies collect data to enhance your experience and personalize the content and advertising you see.
Visit our Privacy Policy to learn more. By continuing to use the site, you agree to this use of cookies and data.
  • în România
  • Lista ţărilor
  • Pe 7 zile
  • Temperatura apei
  • Meteo pe hartă
  • Widget-uri
  • user-avatar
    Intrare

    Meteo pe oră la Slepnevo

    Astăzi, 3 Iunie, Miercuri

    Timp Temperatura Precipitaţii Vânt Presiune Umiditate
    00:00 +8°C° 0 mm 4 m/s 744 mmHg 80%
    01:00 +9°C° 0 mm 3 m/s 744 mmHg 82%
    02:00 +8°C° 0 mm 3 m/s 744 mmHg 85%
    03:00 +8°C° 0.1 mm 3 m/s 744 mmHg 87%
    04:00 +8°C° 0.1 mm 3 m/s 743 mmHg 89%
    05:00 +8°C° 0.1 mm 3 m/s 743 mmHg 91%
    06:00 +9°C° 0.1 mm 3 m/s 743 mmHg 90%
    07:00 +10°C° 0.1 mm 3 m/s 743 mmHg 89%
    08:00 +10°C° 0.1 mm 3 m/s 743 mmHg 88%
    09:00 +10°C° 0.2 mm 3 m/s 743 mmHg 90%
    10:00 +11°C° 0.2 mm 3 m/s 743 mmHg 91%
    11:00 +11°C° 0.2 mm 3 m/s 742 mmHg 93%
    12:00 +11°C° 0.5 mm 3 m/s 742 mmHg 94%
    13:00 +12°C° 0.5 mm 2 m/s 742 mmHg 95%
    14:00 +10°C° 0.5 mm 2 m/s 742 mmHg 96%
    15:00 +12°C° 0.1 mm 2 m/s 742 mmHg 96%
    16:00 +12°C° 0.1 mm 2 m/s 741 mmHg 95%
    17:00 +12°C° 0.1 mm 2 m/s 741 mmHg 95%
    18:00 +12°C° 0 mm 1 m/s 741 mmHg 96%
    19:00 +12°C° 0 mm 1 m/s 741 mmHg 97%
    20:00 +12°C° 0 mm 1 m/s 741 mmHg 98%
    21:00 +11°C° 0 mm 1 m/s 740 mmHg 98%
    22:00 +11°C° 0 mm 1 m/s 740 mmHg 98%
    23:00 +10°C° 0 mm 0 m/s 740 mmHg 98%

    Mâine, 4 Iunie, Joi

    Timp Temperatura Precipitaţii Vânt Presiune Umiditate
    00:00 +9°C° 0 mm 0 m/s 739 mmHg 98%
    01:00 +9°C° 0 mm 0 m/s 739 mmHg 98%
    02:00 +9°C° 0 mm 0 m/s 739 mmHg 98%
    03:00 +9°C° 0 mm 0 m/s 739 mmHg 98%
    04:00 +9°C° 0 mm 0 m/s 738 mmHg 98%
    05:00 +10°C° 0 mm 1 m/s 738 mmHg 98%
    06:00 +12°C° 0 mm 1 m/s 738 mmHg 93%
    07:00 +13°C° 0 mm 1 m/s 738 mmHg 88%
    08:00 +15°C° 0 mm 1 m/s 738 mmHg 83%
    09:00 +16°C° 0 mm 1 m/s 738 mmHg 72%
    10:00 +18°C° 0 mm 2 m/s 738 mmHg 60%
    11:00 +20°C° 0 mm 2 m/s 738 mmHg 49%
    12:00 +20°C° 0.1 mm 2 m/s 738 mmHg 51%
    13:00 +20°C° 0.1 mm 3 m/s 738 mmHg 53%
    14:00 +20°C° 0.1 mm 3 m/s 738 mmHg 55%
    15:00 +19°C° 0.7 mm 3 m/s 738 mmHg 66%
    16:00 +17°C° 0.7 mm 3 m/s 738 mmHg 77%
    17:00 +14°C° 0.7 mm 3 m/s 738 mmHg 87%
    18:00 +14°C° 0.1 mm 3 m/s 738 mmHg 89%
    19:00 +14°C° 0.1 mm 2 m/s 738 mmHg 91%
    20:00 +13°C° 0.1 mm 2 m/s 738 mmHg 93%
    21:00 +12°C° 0 mm 2 m/s 738 mmHg 94%
    22:00 +10°C° 0 mm 2 m/s 738 mmHg 95%
    23:00 +9°C° 0 mm 2 m/s 738 mmHg 97%

    Poimâine, 5 Iunie, Vineri

    Timp Temperatura Precipitaţii Vânt Presiune Umiditate
    00:00 +9°C° 0 mm 2 m/s 738 mmHg 97%
    01:00 +9°C° 0 mm 2 m/s 738 mmHg 97%
    02:00 +9°C° 0 mm 2 m/s 738 mmHg 97%
    03:00 +9°C° 0 mm 2 m/s 738 mmHg 97%
    04:00 +9°C° 0 mm 2 m/s 738 mmHg 96%
    05:00 +10°C° 0 mm 2 m/s 738 mmHg 95%
    06:00 +11°C° 0.1 mm 3 m/s 738 mmHg 90%
    07:00 +13°C° 0.1 mm 3 m/s 738 mmHg 85%
    08:00 +16°C° 0.1 mm 3 m/s 738 mmHg 79%
    09:00 +16°C° 0.9 mm 3 m/s 738 mmHg 78%
    10:00 +17°C° 0.9 mm 3 m/s 738 mmHg 76%
    11:00 +18°C° 0.9 mm 3 m/s 738 mmHg 75%
    12:00 +18°C° 0.5 mm 3 m/s 738 mmHg 70%
    13:00 +19°C° 0.5 mm 3 m/s 738 mmHg 65%
    14:00 +19°C° 0.5 mm 3 m/s 738 mmHg 61%
    15:00 +20°C° 0.2 mm 3 m/s 738 mmHg 60%
    16:00 +20°C° 0.2 mm 3 m/s 738 mmHg 59%
    17:00 +20°C° 0.2 mm 2 m/s 738 mmHg 58%
    18:00 +18°C° 0 mm 2 m/s 738 mmHg 66%
    19:00 +17°C° 0 mm 2 m/s 738 mmHg 73%
    20:00 +15°C° 0 mm 2 m/s 738 mmHg 80%
    21:00 +14°C° 0 mm 2 m/s 738 mmHg 85%
    22:00 +14°C° 0 mm 2 m/s 738 mmHg 89%
    23:00 +12°C° 0 mm 3 m/s 738 mmHg 94%

    6 Iunie, Sâmbătă

    Timp Temperatura Precipitaţii Vânt Presiune Umiditate
    00:00 +12°C° 0 mm 3 m/s 738 mmHg 95%
    01:00 +12°C° 0 mm 3 m/s 738 mmHg 96%
    02:00 +12°C° 0 mm 3 m/s 738 mmHg 97%
    03:00 +13°C° 0.1 mm 3 m/s 738 mmHg 96%
    04:00 +13°C° 0.1 mm 3 m/s 738 mmHg 96%
    05:00 +14°C° 0.1 mm 4 m/s 738 mmHg 95%
    06:00 +14°C° 0 mm 4 m/s 738 mmHg 93%
    07:00 +15°C° 0 mm 4 m/s 737 mmHg 91%
    08:00 +17°C° 0 mm 4 m/s 737 mmHg 89%
    09:00 +17°C° 0.2 mm 4 m/s 738 mmHg 89%
    10:00 +18°C° 0.2 mm 4 m/s 738 mmHg 90%
    11:00 +17°C° 0.2 mm 5 m/s 738 mmHg 91%
    12:00 +19°C° 0.5 mm 5 m/s 738 mmHg 85%
    13:00 +19°C° 0.5 mm 5 m/s 739 mmHg 80%
    14:00 +20°C° 0.5 mm 5 m/s 739 mmHg 75%
    15:00 +21°C° 0 mm 5 m/s 739 mmHg 67%
    16:00 +21°C° 0 mm 5 m/s 740 mmHg 58%
    17:00 +22°C° 0 mm 4 m/s 740 mmHg 49%
    18:00 +20°C° 0 mm 4 m/s 741 mmHg 59%
    19:00 +18°C° 0 mm 3 m/s 742 mmHg 68%
    20:00 +16°C° 0 mm 2 m/s 742 mmHg 78%
    21:00 +15°C° 0 mm 2 m/s 743 mmHg 84%
    22:00 +14°C° 0 mm 2 m/s 744 mmHg 90%
    23:00 +13°C° 0 mm 2 m/s 745 mmHg 96%

    7 Iunie, Duminică

    Timp Temperatura Precipitaţii Vânt Presiune Umiditate
    00:00 +13°C° 0 mm 1 m/s 745 mmHg 96%
    01:00 +12°C° 0 mm 1 m/s 746 mmHg 96%
    02:00 +11°C° 0 mm 1 m/s 746 mmHg 96%
    03:00 +12°C° 0 mm 1 m/s 747 mmHg 95%
    04:00 +12°C° 0 mm 1 m/s 747 mmHg 94%
    05:00 +13°C° 0 mm 1 m/s 747 mmHg 92%
    06:00 +15°C° 0 mm 2 m/s 748 mmHg 82%
    07:00 +17°C° 0 mm 2 m/s 748 mmHg 73%
    08:00 +19°C° 0 mm 3 m/s 748 mmHg 63%
    09:00 +20°C° 0 mm 3 m/s 748 mmHg 58%
    10:00 +21°C° 0 mm 3 m/s 748 mmHg 54%
    11:00 +24°C° 0 mm 2 m/s 749 mmHg 49%
    12:00 +24°C° 0 mm 3 m/s 749 mmHg 47%
    13:00 +25°C° 0 mm 3 m/s 748 mmHg 46%
    14:00 +26°C° 0 mm 3 m/s 748 mmHg 44%
    15:00 +26°C° 0 mm 2 m/s 748 mmHg 45%
    16:00 +26°C° 0 mm 2 m/s 748 mmHg 47%
    17:00 +26°C° 0 mm 2 m/s 748 mmHg 48%
    18:00 +24°C° 0 mm 2 m/s 747 mmHg 57%
    19:00 +21°C° 0 mm 2 m/s 747 mmHg 65%
    20:00 +19°C° 0 mm 2 m/s 747 mmHg 74%
    21:00 +19°C° 0 mm 2 m/s 747 mmHg 77%
    22:00 +18°C° 0 mm 2 m/s 747 mmHg 79%
    23:00 +17°C° 0 mm 3 m/s 747 mmHg 82%

    8 Iunie, Luni

    Timp Temperatura Precipitaţii Vânt Presiune Umiditate
    00:00 +17°C° 0.1 mm 3 m/s 747 mmHg 84%
    01:00 +17°C° 0.1 mm 3 m/s 747 mmHg 86%
    02:00 +18°C° 0.1 mm 3 m/s 746 mmHg 88%
    03:00 +18°C° 0.1 mm 3 m/s 746 mmHg 88%
    04:00 +18°C° 0.1 mm 3 m/s 746 mmHg 89%
    05:00 +18°C° 0.1 mm 3 m/s 746 mmHg 90%
    06:00 +18°C° 0.1 mm 4 m/s 746 mmHg 86%
    07:00 +19°C° 0.1 mm 4 m/s 746 mmHg 83%
    08:00 +20°C° 0.1 mm 4 m/s 746 mmHg 80%
    09:00 +20°C° 0.3 mm 4 m/s 746 mmHg 81%
    10:00 +20°C° 0.3 mm 4 m/s 746 mmHg 83%
    11:00 +20°C° 0.3 mm 4 m/s 746 mmHg 84%
    12:00 +22°C° 0.6 mm 4 m/s 746 mmHg 82%
    13:00 +23°C° 0.6 mm 4 m/s 746 mmHg 80%
    14:00 +25°C° 0.6 mm 4 m/s 745 mmHg 78%
    15:00 +25°C° 0.7 mm 3 m/s 745 mmHg 79%
    16:00 +25°C° 0.7 mm 3 m/s 745 mmHg 80%
    17:00 +25°C° 0.7 mm 3 m/s 745 mmHg 81%
    18:00 +24°C° 0.2 mm 3 m/s 745 mmHg 84%
    19:00 +22°C° 0.2 mm 3 m/s 745 mmHg 86%
    20:00 +21°C° 0.2 mm 2 m/s 745 mmHg 89%
    21:00 +20°C° 0 mm 2 m/s 745 mmHg 91%
    22:00 +19°C° 0 mm 2 m/s 746 mmHg 93%
    23:00 +18°C° 0 mm 2 m/s 746 mmHg 95%
    Arată mai mult